Weather History for Bainbridge, GA

Change the Weather History Date:

Wednesday, February 13, 2013

  Actual Average (KMAI) Record (KMAI)
Temperature  
Mean Temperature 61 °F 54 °F  
Max Temperature 71 °F 66 °F 75 °F (2000)
Min Temperature 51 °F 43 °F 24 °F (2012)
Degree Days  
Heating Degree Days 4    
Month to date heating degree days  
Since 1 July heating degree days  
Cooling Degree Days 0    
Month to date cooling degree days  
Year to date cooling degree days  
Growing Degree Days 11 (Base 50)    
Moisture  
Dew Point 57 °F    
Average Humidity 77    
Maximum Humidity 94    
Minimum Humidity 41    
Precipitation  
Precipitation 0.00 in 0.17 in 3.81 in (2000)
Month to date precipitation 2.20  
Year to date precipitation 7.24  
Sea Level Pressure  
Sea Level Pressure 29.87 in    
Wind  
Wind Speed 11 mph (West)    
Max Wind Speed 16 mph    
Max Gust Speed 24 mph    
Visibility 9 miles    
Events Rain , Thunderstorm    
T = Trace of Precipitation, MM = Missing Value Source: NWS Daily Summary

Daily Weather History Graph

Daily Weather History Graph

Search for Another Location

Airport:

Trip Planner

Search our weather history database for the weather conditions in past years. The results will help you decide how hot, cold, wet, or windy it might be!

Date:

Astronomy

Feb. 13, 2013 Rise Set
Actual Time 7:21 AM EST 6:24 PM EST
Civil Twilight 6:56 AM EST 6:49 PM EST
Nautical Twilight 6:27 AM EST 7:18 PM EST
Astronomical Twilight 5:59 AM EST 7:46 PM EST
Moon 9:08 AM EST (2/13) 10:06 PM EST (2/13)
Length of Visible Light 11h 53m
Length of Day
11h 03m
Waxing Crescent, 13% of the Moon is Illuminated
Feb 13
Waxing Crescent
Feb 17
First Quarter
Feb 25
Full
Mar 4
Last Quarter
Mar 11
New

Hourly Weather History & Observations

Time (EST) Temp. Dew Point Humidity Pressure Visibility Wind Dir Wind Speed Gust Speed Precip Events Conditions
12:15 AM 71.6 °F 69.8 °F 94% 29.81 in 7.0 mi SW 16.1 mph 20.7 mph N/A   Light Drizzle
12:35 AM 71.6 °F 69.8 °F 94% 29.80 in 7.0 mi SW 15.0 mph 20.7 mph N/A Rain Light Rain
12:55 AM 71.6 °F 69.8 °F 94% 29.80 in 7.0 mi SW 13.8 mph 18.4 mph N/A   Scattered Clouds
1:15 AM 71.6 °F 69.8 °F 94% 29.79 in 4.0 mi SW 12.7 mph 18.4 mph N/A Rain Heavy Rain
1:35 AM 71.6 °F 69.8 °F 94% 29.80 in 5.0 mi SW 12.7 mph - N/A Rain Light Rain
2:15 AM 71.6 °F 69.8 °F 94% 29.79 in 7.0 mi SW 11.5 mph 16.1 mph N/A   Mostly Cloudy
2:35 AM 71.6 °F 69.8 °F 94% 29.79 in 7.0 mi SW 10.4 mph - N/A   Mostly Cloudy
2:55 AM 71.6 °F 69.8 °F 94% 29.78 in 7.0 mi SW 11.5 mph - N/A Thunderstorm Mostly Cloudy
3:15 AM 71.6 °F 69.8 °F 94% 29.78 in 7.0 mi SW 9.2 mph - N/A Thunderstorm Mostly Cloudy
3:35 AM 71.6 °F 69.8 °F 94% 29.78 in 7.0 mi SW 11.5 mph 19.6 mph N/A Thunderstorm Thunderstorm
3:55 AM 71.6 °F 69.8 °F 94% 29.77 in 7.0 mi SW 11.5 mph 17.3 mph N/A   Mostly Cloudy
4:15 AM 71.6 °F 69.8 °F 94% 29.77 in 7.0 mi SW 12.7 mph 17.3 mph N/A Thunderstorm Mostly Cloudy
4:35 AM 71.6 °F 69.8 °F 94% 29.78 in 7.0 mi WSW 10.4 mph - N/A   Overcast
4:55 AM 71.6 °F 69.8 °F 94% 29.78 in 5.0 mi SW 11.5 mph - N/A Rain Light Rain
5:15 AM 71.6 °F 69.8 °F 94% 29.78 in 7.0 mi SW 9.2 mph - N/A   Mostly Cloudy
5:35 AM 71.6 °F 69.8 °F 94% 29.78 in 7.0 mi WSW 11.5 mph 17.3 mph N/A   Mostly Cloudy
5:55 AM 71.6 °F 69.8 °F 94% 29.79 in 7.0 mi WSW 10.4 mph - N/A   Mostly Cloudy
6:15 AM 71.6 °F 69.8 °F 94% 29.79 in 7.0 mi WSW 10.4 mph 17.3 mph N/A   Scattered Clouds
6:35 AM 71.6 °F 69.8 °F 94% 29.80 in 7.0 mi WSW 11.5 mph - N/A   Scattered Clouds
6:55 AM 71.6 °F 69.8 °F 94% 29.81 in 7.0 mi WSW 11.5 mph 19.6 mph N/A   Scattered Clouds
7:15 AM 71.6 °F 68.0 °F 88% 29.82 in 7.0 mi West 10.4 mph - N/A   Scattered Clouds
7:35 AM 69.8 °F 68.0 °F 94% 29.82 in 7.0 mi WSW 8.1 mph - N/A   Scattered Clouds
7:55 AM 69.8 °F 68.0 °F 94% 29.83 in 5.0 mi SW 8.1 mph - N/A   Scattered Clouds
8:15 AM 69.8 °F 68.0 °F 94% 29.84 in 7.0 mi WSW 8.1 mph - N/A   Scattered Clouds
8:35 AM 69.8 °F 68.0 °F 94% 29.85 in 7.0 mi WSW 11.5 mph - N/A   Scattered Clouds
8:55 AM 71.6 °F 68.0 °F 88% 29.87 in 7.0 mi West 11.5 mph 19.6 mph N/A   Scattered Clouds
9:15 AM 68.0 °F 55.4 °F 64% 29.87 in 10.0 mi WNW 10.4 mph - N/A   Scattered Clouds
9:35 AM 64.4 °F 53.6 °F 68% 29.88 in 10.0 mi WNW 15.0 mph - N/A   Clear
9:55 AM 66.2 °F 53.6 °F 64% 29.89 in 10.0 mi WNW 8.1 mph - N/A   Clear
10:15 AM 66.2 °F 55.4 °F 68% 29.90 in 10.0 mi West 9.2 mph - N/A   Clear
10:35 AM 68.0 °F 51.8 °F 56% 29.90 in 10.0 mi WNW 10.4 mph - N/A   Clear
11:15 AM 68.0 °F 50.0 °F 52% 29.89 in 10.0 mi WNW 8.1 mph - N/A   Clear
11:35 AM 69.8 °F 51.8 °F 53% 29.89 in 10.0 mi West 6.9 mph - N/A   Clear
11:55 AM 71.6 °F 46.4 °F 41% 29.88 in 10.0 mi West 10.4 mph - N/A   Clear
12:15 PM 69.8 °F 46.4 °F 43% 29.87 in 10.0 mi West 6.9 mph - N/A   Clear
12:35 PM 71.6 °F 51.8 °F 50% 29.87 in 10.0 mi West 6.9 mph - N/A   Clear
12:55 PM 71.6 °F 48.2 °F 43% 29.87 in 10.0 mi West 12.7 mph - N/A   Clear
1:15 PM 71.6 °F 48.2 °F 43% 29.87 in 10.0 mi West 15.0 mph 20.7 mph N/A   Clear
1:35 PM 69.8 °F 48.2 °F 46% 29.86 in 10.0 mi West 13.8 mph - N/A   Clear
1:55 PM 71.6 °F 48.2 °F 43% 29.86 in 10.0 mi WNW 16.1 mph - N/A   Clear
2:15 PM 71.6 °F 48.2 °F 43% 29.85 in 10.0 mi WNW 15.0 mph 18.4 mph N/A   Clear
2:35 PM 68.0 °F 44.6 °F 43% 29.87 in 10.0 mi West 16.1 mph 24.2 mph N/A   Clear
2:55 PM 66.2 °F 44.6 °F 46% 29.87 in 10.0 mi West 13.8 mph - N/A   Clear
3:15 PM 64.4 °F 46.4 °F 52% 29.87 in 10.0 mi West 8.1 mph 16.1 mph N/A   Scattered Clouds
3:35 PM 64.4 °F 48.2 °F 56% 29.88 in 10.0 mi Calm Calm - N/A   Mostly Cloudy
3:55 PM 64.4 °F 46.4 °F 52% 29.88 in 10.0 mi WNW 10.4 mph - N/A   Scattered Clouds
4:15 PM 64.4 °F 46.4 °F 52% 29.89 in 10.0 mi West 9.2 mph - N/A   Scattered Clouds
4:35 PM 64.4 °F 46.4 °F 52% 29.90 in 10.0 mi WNW 13.8 mph - N/A   Scattered Clouds
4:55 PM 62.6 °F 48.2 °F 59% 29.87 in 10.0 mi WNW 8.1 mph 11.5 mph N/A   Scattered Clouds
5:15 PM 59.0 °F 50.0 °F 72% 29.89 in 10.0 mi West 8.1 mph - N/A Rain Light Rain
5:35 PM 59.0 °F 51.8 °F 77% 29.90 in 10.0 mi West 9.2 mph - N/A Rain Light Rain
5:55 PM 57.2 °F 51.8 °F 82% 29.91 in 10.0 mi West 6.9 mph - N/A Rain Rain
6:15 PM 57.2 °F 53.6 °F 88% 29.91 in 5.0 mi WNW 10.4 mph 21.9 mph N/A Rain Rain
6:35 PM 53.6 °F 51.8 °F 94% 29.92 in 10.0 mi West 8.1 mph - N/A Rain Light Rain
6:55 PM 53.6 °F 51.8 °F 94% 29.94 in 7.0 mi West 6.9 mph - N/A Rain Rain
7:15 PM 53.6 °F 51.8 °F 94% 29.94 in 10.0 mi WNW 9.2 mph - N/A Rain Light Rain
7:35 PM 51.8 °F 50.0 °F 94% 29.98 in 10.0 mi NW 11.5 mph - N/A   Overcast
7:55 PM 51.8 °F 46.4 °F 82% 29.98 in 10.0 mi NW 10.4 mph - N/A   Overcast
8:15 PM 51.8 °F 48.2 °F 88% 29.97 in 10.0 mi NNW 9.2 mph - N/A   Overcast
8:35 PM 51.8 °F 48.2 °F 88% 29.98 in 10.0 mi NW 6.9 mph - N/A   Mostly Cloudy
8:55 PM 51.8 °F 46.4 °F 82% 30.01 in 10.0 mi NW 10.4 mph - N/A   Mostly Cloudy
9:15 PM 51.8 °F 46.4 °F 82% 29.98 in 10.0 mi NNW 6.9 mph - N/A   Mostly Cloudy
9:35 PM 51.8 °F 46.4 °F 82% 30.00 in 10.0 mi NW 10.4 mph - N/A   Scattered Clouds
9:55 PM 51.8 °F 46.4 °F 82% 30.00 in 10.0 mi NW 8.1 mph - N/A   Clear
10:15 PM 51.8 °F 46.4 °F 82% 30.00 in 10.0 mi NNW 8.1 mph - N/A   Clear
10:35 PM 51.8 °F 46.4 °F 82% 30.00 in 10.0 mi NW 6.9 mph - N/A   Clear
11:15 PM 51.8 °F 46.4 °F 82% 29.99 in 10.0 mi Calm Calm - N/A   Clear
11:35 PM 51.8 °F 46.4 °F 82% 30.00 in 10.0 mi NW 3.5 mph - N/A   Clear
11:55 PM 51.8 °F 46.4 °F 82% 30.00 in 10.0 mi NW 4.6 mph - N/A   Clear